AUA1524 EDDF-LOWW

Flight info

Callsign AUA1524
Flight time N/A
Altitude 31000
Route SULUS4D/07C SULUS Z650 VEMUT DCT BUDEX BUDEX2W
Aircraft B772/H-SDE2E3FGHIJ5LORVWXY/LB1D1

Departure

Time N/A
Airport Frankfurt Main Airport (EDDF)

Arrival

Time 2026-04-26 22:29
Airport Vienna International Airport (LOWW)
Time Latitude Longitude Altitude Speed Heading
2026-04-26 21:58 49.65867 12.80128 31274 ft 431 kts 125°
2026-04-26 21:58 49.62445 12.87721 31276 ft 430 kts 125°
2026-04-26 21:59 49.59020 12.95304 31279 ft 430 kts 125°
2026-04-26 21:59 49.57287 12.99132 31295 ft 443 kts 125°
2026-04-26 21:59 49.55492 13.03090 31302 ft 457 kts 125°
2026-04-26 22:00 49.52384 13.09929 31302 ft 478 kts 125°
2026-04-26 22:00 49.50451 13.14174 31309 ft 489 kts 125°
2026-04-26 22:00 49.48478 13.18499 31307 ft 499 kts 125°
2026-04-26 22:01 49.44415 13.27387 31300 ft 515 kts 125°
2026-04-26 22:01 49.40271 13.36421 31286 ft 525 kts 125°
2026-04-26 22:02 49.36025 13.45644 31284 ft 532 kts 125°
2026-04-26 22:02 49.31733 13.54938 31280 ft 535 kts 126°
2026-04-26 22:03 49.27419 13.64244 31284 ft 535 kts 126°
2026-04-26 22:03 49.23098 13.73535 31281 ft 535 kts 126°
2026-04-26 22:04 49.18776 13.82795 31283 ft 535 kts 126°
2026-04-26 22:04 49.14469 13.91992 31287 ft 535 kts 126°
2026-04-26 22:05 49.12308 13.96594 31280 ft 524 kts 126°
2026-04-26 22:05 49.10232 14.01012 31265 ft 499 kts 127°
2026-04-26 22:05 49.08250 14.05225 31267 ft 478 kts 127°
2026-04-26 22:05 49.06346 14.09263 31267 ft 459 kts 127°
2026-04-26 22:06 49.04513 14.13143 31266 ft 442 kts 127°
2026-04-26 22:06 49.02743 14.16882 31097 ft 430 kts 127°
2026-04-26 22:06 49.00995 14.20568 30712 ft 426 kts 128°
2026-04-26 22:06 48.99290 14.24159 30342 ft 422 kts 128°
2026-04-26 22:07 48.97573 14.27773 29895 ft 418 kts 128°
2026-04-26 22:07 48.95878 14.31335 29496 ft 413 kts 128°
2026-04-26 22:07 48.94194 14.34852 29100 ft 409 kts 129°
2026-04-26 22:07 48.92489 14.38287 28718 ft 405 kts 130°
2026-04-26 22:08 48.90777 14.41670 28332 ft 402 kts 130°
2026-04-26 22:08 48.89075 14.45017 27941 ft 399 kts 130°
2026-04-26 22:08 48.87383 14.48344 27570 ft 396 kts 130°
2026-04-26 22:08 48.85725 14.51613 27213 ft 394 kts 130°
2026-04-26 22:09 48.84056 14.54907 26828 ft 392 kts 130°
2026-04-26 22:09 48.82394 14.58187 26462 ft 391 kts 130°
2026-04-26 22:09 48.80741 14.61449 26099 ft 389 kts 130°
2026-04-26 22:09 48.79088 14.64706 25747 ft 388 kts 130°
2026-04-26 22:10 48.77438 14.67953 25393 ft 387 kts 130°
2026-04-26 22:10 48.75797 14.71181 25040 ft 386 kts 130°
2026-04-26 22:10 48.74157 14.74402 24681 ft 385 kts 130°
2026-04-26 22:10 48.72517 14.77616 24320 ft 385 kts 129°
2026-04-26 22:11 48.70879 14.80817 23974 ft 385 kts 129°
2026-04-26 22:11 48.69240 14.84013 23573 ft 385 kts 129°
2026-04-26 22:11 48.67600 14.87208 23174 ft 384 kts 129°
2026-04-26 22:11 48.65962 14.90396 22787 ft 382 kts 129°
2026-04-26 22:12 48.64350 14.93531 22438 ft 381 kts 129°
2026-04-26 22:12 48.62725 14.96689 22067 ft 380 kts 129°
2026-04-26 22:12 48.61093 14.99855 21702 ft 379 kts 129°
2026-04-26 22:12 48.59492 15.02993 21333 ft 374 kts 126°
2026-04-26 22:13 48.58344 15.06480 20948 ft 369 kts 105°
2026-04-26 22:13 48.57756 15.10225 20631 ft 365 kts 103°
2026-04-26 22:13 48.57164 15.13955 20272 ft 364 kts 103°
2026-04-26 22:13 48.56550 15.17665 19916 ft 364 kts 104°
2026-04-26 22:14 48.55923 15.21364 19558 ft 364 kts 104°
2026-04-26 22:14 48.55297 15.25014 19203 ft 364 kts 104°
2026-04-26 22:14 48.54658 15.28713 18838 ft 363 kts 104°
2026-04-26 22:14 48.54016 15.32412 18464 ft 363 kts 104°
2026-04-26 22:15 48.53375 15.36106 18052 ft 363 kts 104°
2026-04-26 22:15 48.52733 15.39786 17669 ft 363 kts 104°
2026-04-26 22:15 48.52092 15.43464 17277 ft 362 kts 103°
2026-04-26 22:15 48.51657 15.47184 16856 ft 360 kts 95°
2026-04-26 22:16 48.51479 15.50958 16440 ft 360 kts 91°
2026-04-26 22:16 48.51351 15.54681 16042 ft 360 kts 92°
2026-04-26 22:16 48.51188 15.58464 15624 ft 361 kts 93°
2026-04-26 22:16 48.50987 15.62250 15209 ft 361 kts 93°
2026-04-26 22:17 48.50773 15.66030 14797 ft 362 kts 94°
2026-04-26 22:17 48.50557 15.69727 14365 ft 348 kts 94°
2026-04-26 22:17 48.50343 15.73367 13965 ft 349 kts 94°
2026-04-26 22:17 48.50130 15.76989 13532 ft 350 kts 93°
2026-04-26 22:18 48.49914 15.80651 13115 ft 351 kts 93°
2026-04-26 22:18 48.49696 15.84327 12695 ft 351 kts 93°
2026-04-26 22:18 48.49478 15.87991 12285 ft 351 kts 94°
2026-04-26 22:18 48.49258 15.91663 11878 ft 351 kts 94°
2026-04-26 22:19 48.49038 15.95332 11473 ft 351 kts 94°
2026-04-26 22:19 48.48817 15.99006 11066 ft 351 kts 94°
2026-04-26 22:19 48.48594 16.02672 10673 ft 351 kts 94°
2026-04-26 22:19 48.48370 16.06324 10334 ft 349 kts 94°
2026-04-26 22:20 48.48107 16.09928 9977 ft 340 kts 100°
2026-04-26 22:20 48.47340 16.13226 9772 ft 329 kts 115°
2026-04-26 22:20 48.46370 16.16269 9680 ft 316 kts 115°
2026-04-26 22:20 48.45483 16.19121 9301 ft 296 kts 115°
2026-04-26 22:21 48.44633 16.21904 8575 ft 290 kts 114°
2026-04-26 22:21 48.43806 16.24647 7821 ft 286 kts 114°
2026-04-26 22:21 48.42999 16.27338 7425 ft 281 kts 114°
2026-04-26 22:21 48.42189 16.30050 7104 ft 284 kts 114°
2026-04-26 22:22 48.41379 16.32767 6753 ft 285 kts 114°
2026-04-26 22:22 48.40565 16.35498 6407 ft 286 kts 114°
2026-04-26 22:22 48.39753 16.38222 6090 ft 284 kts 114°
2026-04-26 22:22 48.38949 16.40913 5784 ft 278 kts 114°
2026-04-26 22:23 48.38176 16.43499 5401 ft 262 kts 114°
2026-04-26 22:23 48.37369 16.45826 5099 ft 241 kts 129°
2026-04-26 22:23 48.36064 16.47250 5029 ft 226 kts 157°
2026-04-26 22:23 48.34664 16.48044 5019 ft 211 kts 160°
2026-04-26 22:24 48.33316 16.48704 4977 ft 196 kts 162°
2026-04-26 22:24 48.32031 16.49276 4723 ft 190 kts 163°
2026-04-26 22:24 48.30780 16.49816 4464 ft 184 kts 163°
2026-04-26 22:24 48.29566 16.50334 4235 ft 180 kts 163°
2026-04-26 22:25 48.28362 16.50848 3990 ft 180 kts 163°
2026-04-26 22:25 48.27160 16.51361 3759 ft 179 kts 163°
2026-04-26 22:25 48.25965 16.51870 3518 ft 178 kts 162°
2026-04-26 22:25 48.24783 16.52374 3272 ft 177 kts 162°
2026-04-26 22:26 48.23595 16.52881 3020 ft 176 kts 162°
2026-04-26 22:26 48.22415 16.53383 2804 ft 176 kts 162°
2026-04-26 22:26 48.21259 16.53875 2549 ft 173 kts 162°
2026-04-26 22:26 48.20155 16.54344 2321 ft 157 kts 161°
2026-04-26 22:27 48.19151 16.54772 2094 ft 144 kts 161°
2026-04-26 22:27 48.18210 16.55174 1886 ft 139 kts 161°
2026-04-26 22:27 48.17275 16.55581 1738 ft 142 kts 161°
2026-04-26 22:27 48.16319 16.55980 1537 ft 142 kts 162°
2026-04-26 22:28 48.15379 16.56376 1363 ft 140 kts 162°
2026-04-26 22:28 48.14449 16.56778 1174 ft 138 kts 163°
2026-04-26 22:28 48.13529 16.57162 956 ft 134 kts 164°
2026-04-26 22:28 48.12649 16.57540 793 ft 133 kts 165°
2026-04-26 22:29 48.11754 16.57915 628 ft 130 kts 165°
2026-04-26 22:29 48.10988 16.58240 624 ft 92 kts 164°
2026-04-26 22:29 48.10550 16.58420 627 ft 39 kts 165°
2026-04-26 22:29 48.10345 16.58463 621 ft 29 kts 182°
2026-04-26 22:30 48.10170 16.58414 623 ft 17 kts 204°
2026-04-26 22:30 48.10181 16.58304 620 ft 15 kts 334°
2026-04-26 22:30 48.10276 16.58257 626 ft 15 kts 344°
2026-04-26 22:30 48.10374 16.58218 619 ft 15 kts 345°
2026-04-26 22:31 48.10470 16.58177 626 ft 15 kts 343°
2026-04-26 22:31 48.10567 16.58134 627 ft 15 kts 344°
2026-04-26 22:31 48.10664 16.58092 618 ft 15 kts 343°
2026-04-26 22:31 48.10761 16.58049 621 ft 15 kts 346°
2026-04-26 22:32 48.10858 16.58008 622 ft 15 kts 343°
2026-04-26 22:32 48.10955 16.57964 620 ft 15 kts 343°
2026-04-26 22:32 48.11050 16.57920 625 ft 10 kts 343°
2026-04-26 22:32 48.11104 16.57870 625 ft 9 kts 302°
2026-04-26 22:33 48.11135 16.57783 616 ft 9 kts 297°
2026-04-26 22:33 48.11234 16.57484 625 ft 17 kts 296°
2026-04-26 22:33 48.11285 16.57324 621 ft 17 kts 295°
2026-04-26 22:34 48.11334 16.57164 628 ft 17 kts 295°
2026-04-26 22:34 48.11386 16.57005 626 ft 17 kts 296°
2026-04-26 22:34 48.11430 16.56890 627 ft 9 kts 325°
2026-04-26 22:34 48.11492 16.56894 621 ft 9 kts 22°
2026-04-26 22:35 48.11556 16.56907 625 ft 9 kts 343°
2026-04-26 22:35 48.11618 16.56882 627 ft 10 kts
2026-04-26 22:35 48.11652 16.56905 621 ft 3 kts 27°
2026-04-26 22:35 48.11665 16.56915 621 ft 0 kts 27°
2026-04-26 22:36 48.11668 16.56917 621 ft 1 kts 27°
2026-04-26 22:36 48.11669 16.56918 621 ft 0 kts 27°
2026-04-26 22:45 48.11657 16.56909 632 ft 4 kts 26°
2026-04-26 22:46 48.11633 16.56891 624 ft 4 kts 26°
2026-04-26 22:46 48.11613 16.56877 629 ft 4 kts
2026-04-26 22:46 48.11593 16.56887 629 ft 4 kts 310°
2026-04-26 22:46 48.11581 16.56913 629 ft 1 kts 296°
2026-04-26 22:47 48.11588 16.56891 629 ft 1 kts 296°
2026-04-26 22:47 48.11605 16.56838 622 ft 0 kts 298°
2026-04-26 22:48 48.11659 16.56749 622 ft 16 kts 335°
2026-04-26 22:48 48.11762 16.56728 626 ft 16 kts 346°
2026-04-26 22:48 48.11814 16.56644 624 ft 16 kts 297°
2026-04-26 22:49 48.11849 16.56541 629 ft 9 kts 297°
2026-04-26 22:49 48.11860 16.56476 624 ft 3 kts 297°
2026-04-26 22:49 48.11869 16.56447 624 ft 8 kts 267°